Regional Weather Roundup
Issued by NWS Upton, NY

Current Version | Previous Version | Text Only | Print | Product List | Glossary On
Versions: 1 2 3 4 5 6 7 8 9 10 11 12 13 14 15 16 17 18 19 20 21 22 23 24 25 26 27
000
ASUS41 KOKX 262305
RWROKX

REGIONAL WEATHER ROUNDUP
NATIONAL WEATHER SERVICE NEW YORK NY
700 PM EDT TUE JUL 26 2016

NOTE: "FAIR" INDICATES FEW OR NO CLOUDS BELOW 12,000 FEET WITH NO
SIGNIFICANT WEATHER AND/OR OBSTRUCTIONS TO VISIBILITY.

NYZ071-072-176-178-NJZ106-104-270000-
NEW YORK CITY METRO AREA

CITY           SKY/WX    TMP DP  RH WIND       PRES   REMARKS
Central Park   SUNNY     88  61  40 NW7       29.89S
LaGuardia APRT PTSUNNY   89  64  43 NW14      29.85R HX  90
Kennedy INTL   MOSUNNY   91  58  32 NW14      29.86S HX  90
Newark/Liberty PTSUNNY   91  61  36 N10       29.85S HX  91
Bronx Bot Gard   N/A    N/A N/A N/A N7        29.87F
Wall St Helipt CLEAR     90  61  37 CALM      29.86S
Teterboro      SUNNY     89  59  36 NW12      29.85R
$$

NYZ177-179-078>081-270000-
LONG ISLAND NEW YORK

CITY           SKY/WX    TMP DP  RH WIND       PRES   REMARKS
Farmingdale    SUNNY     89  61  38 N12G18    29.86R
MacArthur/ISP  MOSUNNY   88  61  40 NW10      29.85R
Shirley        SUNNY     89  62  40 NW8       29.86R
Riverhead      NOT AVBL
Westhampton    MOSUNNY   87  61  41 NW12      29.86S
Southhampton     N/A     88  66  48 NW5       29.80S HX  90
Bridgehampton    N/A     84  68  58 CALM      29.84R
East Hampton   FAIR      84  64  50 W6        29.84R
Montauk          N/A     83  67  58 W9        29.84S
$$

NYZ052-065-067-270000-
HUDSON VALLEY

CITY           SKY/WX    TMP DP  RH WIND       PRES   REMARKS
White Plains   SUNNY     85  60  42 NW7       29.88R
Newburgh       MOSUNNY   84  64  51 NW9       29.91R
Montgomery     SUNNY     85  62  46 NW7       29.89S
Poughkeepsie   SUNNY     88  60  38 NW6       29.87R
Albany         MOSUNNY   83  62  49 NW12      29.88S
$$

NJZ001-105-106-008-010-013-015-019>022-104-270000-
NEW JERSEY

CITY           SKY/WX    TMP DP  RH WIND       PRES   REMARKS
Newark/Liberty PTSUNNY   91  61  36 N10       29.85S HX  91
Teterboro      SUNNY     89  59  36 NW12      29.85R
Caldwell       SUNNY     88  62  41 VRB5      29.87S
Morristown     PTSUNNY   88  63  42 N9        29.87S
Somerville     SUNNY     89  67  47 CALM      29.85S HX  92
Linden         FAIR      90  63  41 W7        29.87S HX  90
Sussex         SUNNY     84  62  47 N6        29.91S
Abdover          N/A     85  63  47 VRB7      29.90S
Trenton        MOSUNNY   88  65  46 NW7       29.87S HX  90
Millville      MOSUNNY   88  68  51 W7        29.90S HX  91
Atlantic City  PTSUNNY   88  70  55 W8        29.89S HX  93
Wrightstown    MOSUNNY   88  67  49 W8        29.85S HX  91
Toms River     MOSUNNY   89  67  47 W7        29.88S HX  92
Belmar         NOT AVBL
$$

PAZ047>061-062-071-270000-
EASTERN PENNSYLVANIA

CITY           SKY/WX    TMP DP  RH WIND       PRES   REMARKS
Philadelphia   PTSUNNY   90  67  46 W10       29.89S HX  93
Allentown      MOSUNNY   88  64  44 W8        29.89S
Scranton       SUNNY     87  59  38 N12       29.93R
$$

CTZ002-004>006-009-010-012-RIZ004-006-007-MAZ004-011-015-270000-
SOUTHERN NEW ENGLAND
 IN CT

CITY           SKY/WX    TMP DP  RH WIND       PRES   REMARKS
Bradley INTL   MOSUNNY   88  58  36 NW12      29.84R
Hartford       SUNNY     91  58  32 NW10G21   29.83R HX  90
Danbury        SUNNY     85  58  39 NW9       29.89S
Wtrbury/Oxford MOSUNNY   82  59  44 NW9       29.91S
Bridgeport     SUNNY     89  60  37 N12       29.85R
Meriden        SUNNY     88  58  36 NW8       29.85R
New Haven      MOSUNNY   86  60  41 NW8G17    29.85R
Chester        FAIR      86  59  39 VRB6      29.86R
Groton         MOSUNNY   90  61  37 NW9       29.82R HX  90
Wilimantic     NOT AVBL

 IN RI

CITY           SKY/WX    TMP DP  RH WIND       PRES   REMARKS
Providence     MOSUNNY   89  59  36 W13       29.81R
Block Island   MOSUNNY   77  67  71 W10       29.84R
Westerly       SUNNY     89  58  34 MISG      29.83S
 IN MA

CITY           SKY/WX    TMP DP  RH WIND       PRES   REMARKS
Boston         MOSUNNY   91  56  30 NW12G18   29.78S
Worchester     PTSUNNY   84  56  38 NW13      29.87R
Westfield      SUNNY     87  58  37 NW10      29.84S
Provincetown   SUNNY     84  67  56 S5          N/A
Nantucket      SUNNY     76  67  73 W15       29.80S
$$

ANZ330-335-338-340-345-350-353-355-270000-
COASTAL MARINE OBSERVATIONS


STATION/POSITION TIME  SKY/WX   TEMP    WIND        PRES    VSBY  WAVE
                                AIR SEA DIR/SP/G                  HT/PER
                 (UTC)          (F)     (DEG/KT/KT) (MB)    (MI)  (FT/S)
NY HARB ENTRANCE 2150            80 76  200/  8/  8 1010.9          2/ 7
20S FIRE ISLAND  2150            78 76  220/ 12/ 14 1010.6          3/ 6
GREAT SOUTH BAY  2200            87 82  320/  6/ 14   N/A
23 SSW MONTAUK P 2150            76 71  250/ 12/ 16 1010.9          3/ 7
15 E BARNEGAT LI 2222               77                N/A           3/ 6
HUDSON CANYON    2150            79 78              1011.7          4/ 8
KINGS POINT      2200            83 72                N/A
EXECUTION ROCKS  2200            87     320/ 10/ 12   N/A
CENTRAL LI SOUND 2200            79 74  250/  6/  8   N/A           1/ 3
EASTERN LI SOUND 2200            74 68  250/ 10/ 14   N/A
ROBBINS REEF     2200            89                   N/A
$$


>>>>>>>>>>>>>>>>>>>>>>>>>>>> KEY <<<<<<<<<<<<<<<<<<<<<<<<<<<
>                                                          <
>     SKY/WX - Sky Condition/Present Weather               <
>     TMP    - Temperature in Fahrenheit                   <
>     DP     - Dew Point in Fahrenheit                     <
>     RH     - Relative Humidity in Percent                <
>     WIND   - Direction (from) and Speed in MPH           <
>     PRES   - Mean Sea Level Pressure (inches of Hg)      <
>     WCI    - Wind Chill Index                            <
>     VSB    - VISIBILITY IN MILES                         <
>     HX     - HEAT INDEX                                  <
>     TC     - TEMPERATURE IN CELSIUS                      <
>     VRB    - VARIABLE WIND DIRECTION                     <
>                                                          <
>>>>>>>>>>>>>>>>>>>>>>>>>>>> KEY <<<<<<<<<<<<<<<<<<<<<<<<<<<




USA.gov is the U.S. government's official web portal to all federal, state and local government web resources and services.